TimeEST,TemperatureF,Dew PointF,Humidity,Sea Level PressureIn,VisibilityMPH,Wind Direction,Wind SpeedMPH,Gust SpeedMPH,PrecipitationIn,Events,Conditions,WindDirDegrees,DateUTC
12:15 AM,24.8,14.0,64,29.89,10.0,NW,15.0,23.0,N/A,,Clear,320,2013-01-22 05:15:00
12:35 AM,23.0,14.0,68,29.88,10.0,NW,17.3,20.7,N/A,,Clear,320,2013-01-22 05:35:00
12:55 AM,23.0,17.6,80,29.89,8.0,NW,19.6,24.2,N/A,Snow,Light Snow,310,2013-01-22 05:55:00
1:15 AM,23.0,19.4,86,29.90,1.8,NW,23.0,27.6,0.19,Snow,Light Snow,310,2013-01-22 06:15:00
1:35 AM,23.0,14.0,68,29.91,10.0,NW,20.7,25.3,0.34,,Mostly Cloudy,310,2013-01-22 06:35:00
1:55 AM,21.2,10.4,63,29.93,10.0,NW,18.4,28.8,0.34,,Overcast,310,2013-01-22 06:55:00
2:15 AM,21.2,6.8,54,29.93,10.0,NW,26.5,33.4,N/A,,Scattered Clouds,310,2013-01-22 07:15:00
2:35 AM,19.4,3.2,49,29.94,10.0,WNW,21.9,32.2,N/A,,Clear,290,2013-01-22 07:35:00
2:55 AM,19.4,1.4,46,29.96,10.0,NW,20.7,31.1,N/A,,Clear,310,2013-01-22 07:55:00
3:15 AM,19.4,3.2,49,29.97,10.0,WNW,16.1,21.9,N/A,,Clear,300,2013-01-22 08:15:00
3:35 AM,19.4,1.4,46,29.97,10.0,NW,19.6,-,N/A,,Clear,310,2013-01-22 08:35:00
3:55 AM,19.4,-0.4,42,29.98,10.0,NW,20.7,26.5,N/A,,Clear,310,2013-01-22 08:55:00
4:15 AM,19.4,-0.4,42,29.98,10.0,WNW,18.4,25.3,N/A,,Clear,300,2013-01-22 09:15:00
4:35 AM,17.6,-0.4,45,29.99,10.0,WNW,21.9,25.3,N/A,,Clear,300,2013-01-22 09:35:00
4:55 AM,17.6,-0.4,45,30.00,10.0,NW,19.6,26.5,N/A,,Clear,310,2013-01-22 09:55:00
5:15 AM,17.6,-0.4,45,30.01,10.0,NW,15.0,-,N/A,,Clear,310,2013-01-22 10:15:00
5:35 AM,17.6,-0.4,45,30.01,10.0,WNW,19.6,24.2,N/A,,Clear,290,2013-01-22 10:35:00
5:55 AM,17.6,-0.4,45,30.02,10.0,WNW,16.1,26.5,N/A,,Clear,300,2013-01-22 10:55:00
6:15 AM,17.6,-0.4,45,30.03,10.0,WNW,18.4,25.3,N/A,,Clear,300,2013-01-22 11:15:00
6:55 AM,17.6,-0.4,45,30.05,10.0,NW,13.8,24.2,N/A,,Clear,310,2013-01-22 11:55:00
7:15 AM,15.8,-0.4,49,30.06,10.0,NW,15.0,19.6,N/A,,Clear,310,2013-01-22 12:15:00
7:35 AM,15.8,1.4,53,30.07,10.0,WNW,10.4,-,N/A,,Clear,300,2013-01-22 12:35:00
7:55 AM,17.6,1.4,49,30.08,10.0,WNW,15.0,-,N/A,,Clear,300,2013-01-22 12:55:00
8:15 AM,17.6,-0.4,45,30.08,10.0,WNW,15.0,18.4,N/A,,Clear,300,2013-01-22 13:15:00
8:35 AM,17.6,-0.4,45,30.09,10.0,WNW,20.7,25.3,N/A,,Clear,290,2013-01-22 13:35:00
8:55 AM,17.6,-4.0,38,30.10,10.0,NW,16.1,25.3,N/A,,Clear,310,2013-01-22 13:55:00
9:15 AM,19.4,-2.2,39,30.11,10.0,WNW,17.3,27.6,N/A,,Clear,290,2013-01-22 14:15:00
9:35 AM,19.4,-2.2,39,30.11,10.0,NW,19.6,29.9,N/A,,Clear,320,2013-01-22 14:35:00
9:55 AM,19.4,-2.2,39,30.13,10.0,WNW,18.4,26.5,N/A,,Clear,300,2013-01-22 14:55:00
10:15 AM,19.4,-2.2,39,30.13,10.0,WNW,20.7,28.8,N/A,,Partly Cloudy,300,2013-01-22 15:15:00
10:35 AM,19.4,-4.0,36,30.13,10.0,WNW,20.7,27.6,N/A,,Clear,300,2013-01-22 15:35:00
10:55 AM,19.4,-4.0,36,30.13,10.0,NW,23.0,29.9,N/A,,Clear,320,2013-01-22 15:55:00
11:15 AM,19.4,-4.0,36,30.12,10.0,NW,17.3,29.9,N/A,,Partly Cloudy,310,2013-01-22 16:15:00
11:35 AM,19.4,-4.0,36,30.12,10.0,NW,15.0,27.6,N/A,,Partly Cloudy,310,2013-01-22 16:35:00
11:55 AM,21.2,-2.2,36,30.11,10.0,NW,20.7,31.1,N/A,,Clear,310,2013-01-22 16:55:00
12:15 PM,21.2,-2.2,36,30.10,10.0,WNW,16.1,33.4,N/A,,Clear,290,2013-01-22 17:15:00
12:35 PM,21.2,-4.0,33,30.10,10.0,West,17.3,26.5,N/A,,Clear,280,2013-01-22 17:35:00
12:55 PM,19.4,-5.8,33,30.09,10.0,NW,20.7,29.9,N/A,,Clear,310,2013-01-22 17:55:00
1:15 PM,21.2,-4.0,33,30.09,10.0,NW,19.6,28.8,N/A,,Clear,310,2013-01-22 18:15:00
1:35 PM,19.4,-4.0,36,30.09,10.0,NW,20.7,26.5,N/A,,Clear,310,2013-01-22 18:35:00
1:55 PM,19.4,-4.0,36,30.09,10.0,WNW,16.1,26.5,N/A,,Clear,300,2013-01-22 18:55:00
2:15 PM,21.2,-2.2,36,30.09,10.0,WNW,13.8,27.6,N/A,,Clear,300,2013-01-22 19:15:00
2:35 PM,19.4,-4.0,36,30.09,10.0,NW,16.1,25.3,N/A,,Clear,310,2013-01-22 19:35:00
2:55 PM,19.4,-0.4,42,30.10,10.0,WNW,17.3,23.0,N/A,,Clear,300,2013-01-22 19:55:00
3:15 PM,21.2,-4.0,33,30.11,10.0,WNW,21.9,26.5,N/A,,Clear,290,2013-01-22 20:15:00
3:35 PM,19.4,-2.2,39,30.11,10.0,WNW,17.3,25.3,N/A,,Clear,290,2013-01-22 20:35:00
3:55 PM,19.4,-4.0,36,30.12,10.0,WNW,20.7,28.8,N/A,,Clear,300,2013-01-22 20:55:00
4:15 PM,19.4,-4.0,36,30.13,10.0,NW,17.3,24.2,N/A,,Clear,310,2013-01-22 21:15:00
4:35 PM,19.4,-4.0,36,30.13,10.0,WNW,20.7,26.5,N/A,,Clear,300,2013-01-22 21:35:00
4:55 PM,17.6,-2.2,42,30.13,10.0,NW,16.1,20.7,N/A,,Partly Cloudy,310,2013-01-22 21:55:00
5:15 PM,17.6,-2.2,42,30.15,10.0,NW,15.0,-,N/A,,Clear,310,2013-01-22 22:15:00
5:35 PM,17.6,-4.0,38,30.16,10.0,NW,15.0,23.0,N/A,,Clear,310,2013-01-22 22:35:00
5:55 PM,17.6,-4.0,38,30.16,10.0,NW,18.4,25.3,N/A,,Clear,310,2013-01-22 22:55:00
6:15 PM,17.6,-5.8,35,30.17,10.0,NW,17.3,-,N/A,,Clear,310,2013-01-22 23:15:00
6:35 PM,17.6,-4.0,38,30.18,10.0,WNW,16.1,20.7,N/A,,Clear,300,2013-01-22 23:35:00
6:55 PM,15.8,-5.8,38,30.20,10.0,NW,13.8,-,N/A,,Clear,310,2013-01-22 23:55:00
7:15 PM,15.8,-4.0,41,30.20,10.0,NW,12.7,18.4,N/A,,Clear,310,2013-01-23 00:15:00
7:35 PM,15.8,-4.0,41,30.20,10.0,NW,12.7,19.6,N/A,,Clear,310,2013-01-23 00:35:00
7:55 PM,14.0,-4.0,45,30.21,10.0,WNW,10.4,18.4,N/A,,Clear,300,2013-01-23 00:55:00
8:15 PM,14.0,-4.0,45,30.21,10.0,NW,13.8,-,N/A,,Clear,310,2013-01-23 01:15:00
8:35 PM,14.0,-4.0,45,30.21,10.0,NW,11.5,-,N/A,,Clear,310,2013-01-23 01:35:00
8:55 PM,14.0,-4.0,45,30.22,10.0,NW,12.7,18.4,N/A,,Clear,310,2013-01-23 01:55:00
9:15 PM,14.0,-5.8,41,30.22,10.0,NW,13.8,21.9,N/A,,Clear,310,2013-01-23 02:15:00
9:35 PM,14.0,-4.0,45,30.24,10.0,NW,12.7,20.7,N/A,,Clear,310,2013-01-23 02:35:00
9:55 PM,14.0,-4.0,45,30.24,10.0,NW,18.4,23.0,N/A,,Clear,310,2013-01-23 02:55:00
10:15 PM,14.0,-4.0,45,30.25,10.0,NW,12.7,20.7,N/A,,Clear,310,2013-01-23 03:15:00
10:35 PM,14.0,-4.0,45,30.25,10.0,NW,13.8,20.7,N/A,,Clear,310,2013-01-23 03:35:00
10:55 PM,14.0,-4.0,45,30.24,10.0,WNW,12.7,20.7,N/A,,Clear,300,2013-01-23 03:55:00
11:15 PM,12.2,-4.0,48,30.24,10.0,NW,10.4,-,N/A,,Clear,310,2013-01-23 04:15:00
11:55 PM,12.2,-4.0,48,30.24,10.0,WNW,10.4,-,N/A,,Clear,300,2013-01-23 04:55:00